Weather History for KDAW - June, 2013

Change the Weather History Date:

Thursday, June 27, 2013

  Actual Average (KSFM) Record (KSFM)
Temperature  
Mean Temperature 63 °F -  
Max Temperature 70 °F 78 °F 96 °F (2007)
Min Temperature 57 °F 55 °F 44 °F (2004)
Degree Days  
Heating Degree Days 2    
Growing Degree Days 13 (Base 50)    
Moisture  
Dew Point 59 °F    
Average Humidity 93    
Maximum Humidity 100    
Minimum Humidity 81    
Precipitation  
Precipitation 0.86 in - - ()
Sea Level Pressure  
Sea Level Pressure 29.84 in    
Wind  
Wind Speed 3 mph (ENE)    
Max Wind Speed 9 mph    
Max Gust Speed -    
Visibility 4 miles    
Events Fog , Rain    
Averages and records for this station are not official NWS values.
T = Trace of Precipitation, MM = Missing Value Source: NWS Daily Summary

Daily Weather History Graph

Daily Weather History Graph

Search for Another Location

Airport or City:

Trip Planner

Search our weather history database for the weather conditions in past years. The results will help you decide how hot, cold, wet, or windy it might be!

Date:

Astronomy

Jun. 27, 2013 Rise Set
Actual Time 5:05 AM EDT 8:27 PM EDT
Civil Twilight 4:29 AM EDT 9:03 PM EDT
Nautical Twilight 3:43 AM EDT 9:49 PM EDT
Astronomical Twilight 2:45 AM EDT 10:47 PM EDT
Moon 11:13 PM EDT (6/27) 10:11 AM EDT (6/27)
Length of Visible Light 16h 33m
Length of Day
15h 22m
Waning Gibbous, 76% of the Moon is Illuminated
Jun 27
Waning Gibbous
Jun 30
Last Quarter
Jul 8
New
Jul 15
First Quarter
Jul 22
Full

Hourly Weather History & Observations

Time (EDT) Temp. Dew Point Humidity Pressure Visibility Wind Dir Wind Speed Gust Speed Precip Events Conditions
12:10 AM 59.0 °F 57.2 °F 94% 29.86 in 0.2 mi NE 4.6 mph - N/A Fog Fog
12:19 AM 59.0 °F 57.2 °F 94% 29.86 in 0.5 mi NNE 4.6 mph - N/A Fog Fog
12:37 AM 59.0 °F 57.2 °F 94% 29.87 in 2.0 mi NE 3.5 mph - N/A   Overcast
12:51 AM 59.0 °F 57.9 °F 96% 29.85 in 1.5 mi East 4.6 mph - N/A   Overcast
1:32 AM 60.8 °F 57.2 °F 88% 29.87 in 2.5 mi ENE 3.5 mph - N/A   Overcast
1:51 AM 59.0 °F 57.9 °F 96% 29.86 in 1.2 mi NE 3.5 mph - 0.01 in   Overcast
2:38 AM 57.2 °F 57.2 °F 100% 29.86 in 2.0 mi Variable 3.5 mph - N/A   Overcast
2:51 AM 57.9 °F 57.0 °F 97% 29.85 in 2.5 mi ENE 3.5 mph - N/A   Overcast
3:51 AM 57.9 °F 57.0 °F 97% 29.84 in 2.0 mi Calm Calm - N/A   Overcast
4:51 AM 57.9 °F 57.0 °F 97% 29.84 in 2.0 mi East 3.5 mph - N/A   Overcast
5:27 AM 57.2 °F 55.4 °F 94% 29.85 in 1.5 mi NE 4.6 mph - 0.01 in   Overcast
5:51 AM 57.0 °F 55.9 °F 96% 29.85 in 2.5 mi East 4.6 mph - 0.01 in   Overcast
6:06 AM 57.2 °F 57.2 °F 100% 29.86 in 1.5 mi Calm Calm - N/A   Overcast
6:51 AM 57.9 °F 57.0 °F 97% 29.86 in 2.0 mi Calm Calm - N/A   Overcast
7:15 AM 59.0 °F 57.2 °F 94% 29.86 in 4.0 mi Variable 5.8 mph - N/A   Overcast
7:51 AM 59.0 °F 57.0 °F 93% 29.87 in 9.0 mi SSE 4.6 mph - N/A   Overcast
8:41 AM 59.0 °F 57.2 °F 94% 29.87 in 2.5 mi ESE 3.5 mph - N/A   Overcast
8:51 AM 59.0 °F 57.9 °F 96% 29.86 in 3.0 mi Calm Calm - N/A   Overcast
9:11 AM 60.8 °F 57.2 °F 88% 29.87 in 2.5 mi Calm Calm - N/A   Overcast
9:31 AM 59.0 °F 57.2 °F 94% 29.86 in 1.2 mi Calm Calm - N/A   Overcast
9:51 AM 60.1 °F 59.0 °F 96% 29.85 in 1.2 mi Calm Calm - N/A   Overcast
10:14 AM 60.8 °F 59.0 °F 94% 29.85 in 2.0 mi Calm Calm - N/A   Overcast
10:51 AM 62.1 °F 60.1 °F 93% 29.85 in 2.0 mi Calm Calm - N/A   Overcast
11:05 AM 62.6 °F 60.8 °F 94% 29.85 in 4.0 mi Calm Calm - N/A   Overcast
11:51 AM 64.9 °F 61.0 °F 87% 29.84 in 10.0 mi Calm Calm - N/A   Overcast
12:07 PM 64.4 °F 62.6 °F 94% 29.85 in 9.0 mi Calm Calm - N/A   Overcast
12:51 PM 66.0 °F 62.1 °F 87% 29.84 in 10.0 mi Calm Calm - N/A   Overcast
1:51 PM 68.0 °F 63.0 °F 84% 29.83 in 10.0 mi ESE 4.6 mph - N/A   Overcast
2:51 PM 69.1 °F 63.0 °F 81% 29.82 in 10.0 mi SE 3.5 mph - N/A   Overcast
3:48 PM 69.8 °F 64.4 °F 83% 29.82 in 10.0 mi ESE 4.6 mph - N/A   Overcast
3:51 PM 68.0 °F 64.0 °F 87% 29.82 in 10.0 mi East 6.9 mph - N/A   Overcast
4:51 PM 69.1 °F 63.0 °F 81% 29.80 in 10.0 mi ESE 6.9 mph - N/A   Overcast
5:51 PM 66.9 °F 63.0 °F 87% 29.79 in 10.0 mi East 5.8 mph - 0.00 in Rain Light Rain
6:16 PM 64.4 °F 62.6 °F 94% 29.80 in 10.0 mi ESE 5.8 mph - 0.00 in Rain Light Rain
6:51 PM 63.0 °F 61.0 °F 93% 29.80 in 10.0 mi SE 4.6 mph - 0.00 in   Overcast
7:51 PM 61.0 °F 60.1 °F 97% 29.81 in 5.0 mi East 4.6 mph - 0.02 in Rain Light Rain
8:04 PM 60.8 °F 60.8 °F 100% 29.81 in 1.8 mi East 5.8 mph - 0.01 in Rain Light Rain
8:34 PM 60.8 °F 59.0 °F 94% 29.82 in 2.0 mi Variable 3.5 mph - 0.37 in Rain Heavy Rain
8:42 PM 60.8 °F 60.8 °F 100% 29.82 in 2.5 mi Calm Calm - 0.43 in Rain Heavy Rain
8:51 PM 61.0 °F 59.0 °F 93% 29.81 in 1.8 mi Calm Calm - 0.52 in Rain Heavy Rain
8:58 PM 60.8 °F 60.8 °F 100% 29.82 in 2.0 mi Calm Calm - 0.04 in Rain Heavy Rain
9:08 PM 60.8 °F 59.0 °F 94% 29.82 in 3.0 mi ENE 3.5 mph - 0.07 in Rain Heavy Rain
9:13 PM 60.8 °F 59.0 °F 94% 29.82 in 2.5 mi NE 3.5 mph - 0.10 in Rain Heavy Rain
9:19 PM 60.8 °F 59.0 °F 94% 29.82 in 3.0 mi Calm Calm - 0.12 in Rain Rain
9:40 PM 60.8 °F 59.0 °F 94% 29.83 in 2.5 mi ENE 4.6 mph - 0.16 in Rain Rain
9:48 PM 60.8 °F 59.0 °F 94% 29.83 in 4.0 mi NE 5.8 mph - 0.17 in Rain Light Rain
9:51 PM 60.1 °F 59.0 °F 96% 29.82 in 4.0 mi NE 4.6 mph - 0.18 in Rain Rain
10:02 PM 60.8 °F 59.0 °F 94% 29.83 in 2.0 mi NE 3.5 mph - 0.06 in Rain Heavy Rain
10:25 PM 60.8 °F 57.2 °F 88% 29.82 in 3.0 mi NNE 5.8 mph - 0.11 in Rain Light Rain
10:38 PM 59.0 °F 57.2 °F 94% 29.82 in 5.0 mi NE 9.2 mph - 0.12 in Rain Light Rain
10:51 PM 59.0 °F 57.0 °F 93% 29.81 in 8.0 mi NE 6.9 mph - 0.12 in   Overcast
11:51 PM 57.9 °F 55.9 °F 93% 29.79 in 10.0 mi NE 6.9 mph - N/A   Overcast